[[{"header":{"parameterUnit":"m.s-1","parameterCategory":2,"la1":30.2991,"la2":30.254,"lo1":-89.0895,"lo2":-89.0444,"dy":0.0017,"dx":0.0017,"nx":28,"ny":28,"refTime":"2025-04-01T03:00:00:Z","depth":"0","parameterNumber":2,"parameterNumberName":"U-component_of_CURRENTS"},"data":[0,0,0,0,0,0,0,0,0,0,0,0,0,0,0,0,0,0,0,0,0,0,0,0,0,0,0,0,0,0,0,0,0,0,0,0,0,0,0,0,0,0,0,0,0,0,0,0,0,0,0,0,0,0,0,0,0,0,-0.3499,-0.3499,0,-0.3549,-0.3549,-0.3549,-0.347,-0.3467,-0.3465,-0.3463,-0.3398,-0.3399,-0.3399,0,0,0,0,0,0,0,0,0,0,0,0,0,-0.3282,-0.3287,-0.3498,-0.3499,-0.35,-0.3549,-0.3549,-0.3549,-0.347,-0.3467,-0.3464,-0.3462,-0.3398,-0.3399,-0.3399,0,0,0,0,0,0,0,0,0,0,0,0,0,-0.3356,-0.3288,-0.3498,-0.3469,-0.3467,-0.3549,-0.3549,-0.3549,-0.3471,-0.3467,-0.3464,-0.346,-0.3398,-0.3399,-0.3399,-0.3478,0,0,-0.3402,-0.3402,0,0,0,0,0,0,0,0,-0.3352,-0.3363,-0.3472,-0.3471,-0.3469,-0.3502,-0.3449,-0.3521,-0.3472,-0.3466,-0.3463,-0.3458,-0.3427,-0.3426,-0.344,-0.3475,-0.3472,-0.3402,-0.3403,-0.3403,-0.3403,0,0,0,0,0,0,0,-0.3347,-0.336,-0.3515,-0.3474,-0.3472,-0.3436,-0.3442,-0.3462,-0.3462,-0.3466,-0.3461,-0.3474,-0.3425,-0.3439,-0.3437,-0.3471,-0.3402,-0.3403,-0.3403,-0.3404,-0.3537,-0.354,0,0,0,0,0,0,-0.3355,-0.3357,-0.3513,-0.3517,-0.3404,-0.3443,-0.345,-0.3493,-0.3464,-0.3458,-0.3477,-0.347,-0.344,-0.3437,-0.3435,-0.3484,-0.3403,-0.3404,-0.3404,-0.3534,-0.3538,-0.3541,0,0,0,0,0,0,-0.3351,-0.337,-0.3511,-0.3437,-0.3453,-0.3452,-0.3499,-0.3496,-0.3494,-0.3474,-0.3464,-0.3477,-0.3437,-0.3434,-0.3453,-0.3482,-0.3404,-0.3405,-0.3531,-0.3535,-0.354,-0.3609,0,0,0,0,0,0,-0.3345,-0.3369,-0.3396,-0.344,-0.3458,-0.3563,-0.3503,-0.3499,-0.351,-0.3501,-0.3472,-0.3463,-0.3434,-0.3453,-0.3454,-0.3482,-0.3405,-0.3527,-0.3533,-0.3538,-0.3603,-0.3615,-0.3626,0,0,0,0,0,-0.3338,-0.34,-0.3398,-0.3416,-0.35,-0.3565,-0.3571,-0.3553,-0.3514,-0.3533,-0.351,-0.3463,-0.349,-0.3457,-0.3457,-0.3485,-0.3524,-0.3531,-0.3538,-0.3598,-0.3613,-0.3626,0,0,0,0,0,0,-0.3326,-0.34,-0.3398,-0.348,-0.3518,-0.3552,-0.3574,-0.3562,-0.3565,-0.3546,-0.3504,-0.3497,-0.353,-0.3513,-0.3477,-0.3546,-0.35,-0.3507,-0.3545,-0.3559,-0.3571,-0.3535,-0.3406,0,0,0,0,0,-0.3341,-0.3397,-0.3456,-0.3516,-0.3541,-0.3557,-0.3577,-0.3573,-0.3585,-0.358,-0.3561,-0.3552,-0.357,-0.3563,-0.3579,-0.3618,-0.3556,-0.3639,-0.3651,-0.3661,-0.3637,-0.3549,-0.3548,-0.3564,-0.3564,-0.3564,0,0,-0.3348,-0.3399,-0.3427,-0.3515,-0.3539,-0.3593,-0.3558,-0.3604,-0.3631,-0.3578,-0.3599,-0.3599,-0.3595,-0.3635,-0.3647,-0.3613,-0.3641,-0.3669,-0.3677,-0.3647,-0.3556,-0.3553,-0.355,-0.3568,-0.3568,-0.3567,0,0,-0.3397,-0.3445,-0.3502,-0.3545,-0.36,-0.362,-0.3635,-0.3676,-0.3672,-0.3715,-0.3682,-0.3689,-0.3719,-0.3709,-0.3711,-0.3802,-0.3714,-0.3822,-0.3834,-0.3751,-0.3746,-0.3742,-0.3716,-0.3708,-0.3815,-0.3815,-0.3815,0,-0.3399,-0.3482,-0.3526,-0.3591,-0.3617,-0.3634,-0.3684,-0.3714,-0.3747,-0.373,-0.3727,-0.3734,-0.3749,-0.3755,-0.3803,-0.3821,-0.377,-0.3775,-0.3758,-0.3752,-0.3745,-0.3719,-0.3709,-0.3819,-0.3819,-0.3818,-0.3818,0,-0.3481,-0.3543,-0.3584,-0.3664,-0.3705,-0.3755,-0.3801,-0.382,-0.3815,-0.3811,-0.3812,-0.3827,-0.3801,-0.3844,-0.3861,-0.3843,-0.3825,-0.3786,-0.3704,-0.3746,-0.3719,-0.3708,-0.3825,-0.3824,-0.3822,-0.3821,0,0,-0.3464,-0.3613,-0.3614,-0.3634,-0.3738,-0.3758,-0.3829,-0.3853,-0.3827,-0.3864,-0.3819,-0.3893,-0.3847,-0.3849,-0.3856,-0.3819,-0.3791,-0.3795,-0.3789,-0.374,-0.3632,-0.3581,-0.3563,-0.3726,-0.3724,-0.3721,-0.3649,0,-0.3492,-0.3601,-0.3677,-0.3733,-0.3773,-0.3818,-0.3856,-0.3874,-0.3877,-0.3846,-0.3841,-0.3818,-0.3864,-0.384,-0.3815,-0.3798,-0.3754,-0.3816,-0.3624,-0.362,-0.3541,-0.3545,-0.3405,-0.3322,-0.3637,-0.3635,-0.3634,0,-0.3504,-0.3573,-0.3651,-0.3712,-0.3729,-0.3763,-0.3753,-0.3794,-0.3787,-0.3782,-0.3752,-0.374,-0.3738,-0.3744,-0.3685,-0.3715,-0.3678,-0.3658,-0.3652,-0.3555,-0.3543,-0.3324,-0.3288,-0.3264,-0.3615,-0.3616,-0.3618,0,-0.3378,-0.3519,-0.356,-0.3593,-0.3694,-0.3695,-0.3722,-0.3737,-0.3733,-0.371,-0.369,-0.3659,-0.3639,-0.3582,-0.3605,-0.3616,-0.3519,-0.3509,-0.3421,-0.342,-0.3236,-0.3221,-0.3113,-0.3407,-0.3407,-0.3408,-0.3408,0,-0.3329,-0.3339,-0.3493,-0.3496,-0.349,-0.3588,-0.3549,-0.3576,-0.3595,-0.3567,-0.3616,-0.3594,-0.3589,-0.3562,-0.3555,-0.347,-0.3463,-0.3408,-0.3374,-0.3269,-0.3259,-0.3177,-0.321,-0.3405,-0.3406,-0.3406,-0.3407,0,-0.3142,-0.3269,-0.3293,-0.3403,-0.3426,-0.3393,-0.3453,-0.3424,-0.3479,-0.3451,-0.3445,-0.3515,-0.3493,-0.3497,-0.3428,-0.3396,-0.326,-0.3285,-0.3206,-0.3162,-0.3039,-0.3083,-0.2924,-0.2842,-0.3147,-0.3144,-0.3143,0,-0.3058,-0.3061,-0.3171,-0.3175,-0.3213,-0.3217,-0.322,-0.3318,-0.3317,-0.3403,-0.3379,-0.3397,-0.3385,-0.3312,-0.3246,-0.3168,-0.3169,-0.2991,-0.2973,-0.2994,-0.3018,-0.3053,-0.2998,-0.279,-0.2786,-0.2782,-0.2779,0,-0.2859,-0.29,-0.2928,-0.2955,-0.2969,-0.2987,-0.3019,-0.3022,-0.3141,-0.3161,-0.3204,-0.3213,-0.3195,-0.3077,-0.3007,-0.2942,-0.291,-0.2912,-0.2908,-0.2702,-0.275,-0.2667,-0.2944,-0.2746,-0.275,-0.2752,-0.2754,-0.2755,-0.2683,-0.2654,-0.2708,-0.2704,-0.2734,-0.2742,-0.2696,-0.2785,-0.2794,-0.2825,-0.2963,-0.2951,-0.2922,-0.2806,-0.2747,-0.2593,-0.2673,-0.2506,-0.2556,-0.2591,-0.2497,-0.2743,-0.2523,-0.2525,-0.2527,-0.2528,-0.253,0,-0.2477,-0.2468,-0.2457,-0.247,-0.2427,-0.2517,-0.2542,-0.2493,-0.2473,-0.2582,-0.2604,-0.2622,-0.2504,-0.2498,-0.2381,-0.2273,-0.2215,-0.2225,-0.2224,-0.218,-0.2342,-0.2311,-0.2064,-0.2064,-0.2064,-0.2064,-0.2064,-0.2064,-0.2369,-0.2282,-0.229,-0.2169,-0.217,-0.207,-0.2051,-0.2035,-0.2073,-0.2088,-0.2159,-0.2275,-0.2298,-0.2408,-0.2248,-0.2131,-0.2081,-0.2014,-0.2065,-0.2191,-0.2222,-0.2251,-0.2226,-0.1965,-0.1965,-0.1798,-0.1797,-0.1797]},{"header":{"parameterUnit":"m.s-1","parameterCategory":2,"la1":30.2991,"la2":30.254,"lo1":-89.0895,"lo2":-89.0444,"dy":0.0017,"dx":0.0017,"nx":28,"ny":28,"refTime":"2025-04-01T03:00:00:Z","depth":"0","parameterNumber":3,"parameterNumberName":"V-component_of_CURRENTS"},"data":[0,0,0,0,0,0,0,0,0,0,0,0,0,0,0,0,0,0,0,0,0,0,0,0,0,0,0,0,0,0,0,0,0,0,0,0,0,0,0,0,0,0,0,0,0,0,0,0,0,0,0,0,0,0,0,0,0,0,-0.0441,-0.044,0,-0.0306,-0.0304,-0.0302,-0.0224,-0.0224,-0.0224,-0.0224,-0.003,-0.0025,-0.002,0,0,0,0,0,0,0,0,0,0,0,0,0,-0.0508,-0.0508,-0.0441,-0.0439,-0.0438,-0.0306,-0.0304,-0.0302,-0.0224,-0.0224,-0.0224,-0.0224,-0.0031,-0.0025,-0.0019,0,0,0,0,0,0,0,0,0,0,0,0,0,-0.0435,-0.0508,-0.0441,-0.0385,-0.0378,-0.0306,-0.0304,-0.0301,-0.0224,-0.0224,-0.0224,-0.0223,-0.0033,-0.0026,-0.0018,0.0025,0,0,0.0005,0.0008,0,0,0,0,0,0,0,0,-0.0439,-0.0432,-0.0394,-0.0388,-0.0381,-0.0283,-0.0256,-0.019,-0.0224,-0.0281,-0.0224,-0.0223,-0.011,-0.0096,-0.0069,0.0034,0.0042,0.0005,0.001,0.0013,0.0015,0,0,0,0,0,0,0,-0.0445,-0.0437,-0.0385,-0.0393,-0.0385,-0.0324,-0.0314,-0.0243,-0.0196,-0.0276,-0.027,-0.0258,-0.0106,-0.0077,-0.0064,0.0045,0.0005,0.0012,0.0017,0.002,0.0205,0.0205,0,0,0,0,0,0,-0.0472,-0.0443,-0.039,-0.0382,-0.0413,-0.0323,-0.0312,-0.0313,-0.0197,-0.0181,-0.0259,-0.0255,-0.009,-0.0073,-0.0057,-0.0004,0.0013,0.002,0.0025,0.0204,0.0205,0.0205,0,0,0,0,0,0,-0.0474,-0.0469,-0.0395,-0.0409,-0.0396,-0.0324,-0.0324,-0.0311,-0.0283,-0.0185,-0.0167,-0.0246,-0.0089,-0.0068,0.0003,0.0004,0.0024,0.0031,0.0204,0.0204,0.0205,0.0104,0,0,0,0,0,0,-0.0477,-0.0471,-0.0483,-0.0412,-0.0396,-0.0362,-0.0324,-0.0308,-0.0277,-0.0271,-0.0168,-0.015,-0.0087,-0.0009,0.001,0.0015,0.0037,0.0203,0.0204,0.0205,0.0107,0.0101,0.0096,0,0,0,0,0,-0.048,-0.0501,-0.0484,-0.0478,-0.0415,-0.0363,-0.0349,-0.0294,-0.0277,-0.0268,-0.0198,-0.0153,0.0009,-0.0002,0.002,0.0026,0.0203,0.0204,0.0205,0.011,0.0102,0.0097,0,0,0,0,0,0,-0.0537,-0.0493,-0.0474,-0.0481,-0.043,-0.0351,-0.0341,-0.0302,-0.0239,-0.0235,-0.0145,-0.0121,-0.006,-0.0001,-0.0016,0.0083,0.0113,0.0118,0.0033,0.0027,0.0022,0.0,0.0043,0,0,0,0,0,-0.0557,-0.0563,-0.0501,-0.0506,-0.0487,-0.0415,-0.0389,-0.0351,-0.0286,-0.0259,-0.0186,-0.0108,-0.0038,0.0004,0.0074,0.0131,0.0186,0.0151,0.0145,0.014,0.0139,0.0208,0.0209,0.0208,0.0208,0.0208,0,0,-0.0581,-0.0558,-0.0561,-0.0519,-0.0476,-0.0454,-0.0399,-0.0366,-0.0343,-0.0246,-0.0197,-0.0125,-0.0028,0.0032,0.0066,0.0082,0.0171,0.0141,0.0136,0.0138,0.0209,0.0209,0.0209,0.0208,0.0208,0.0208,0,0,-0.0632,-0.0612,-0.0631,-0.0592,-0.054,-0.049,-0.0487,-0.041,-0.0374,-0.0315,-0.0243,-0.0173,-0.0065,0.0004,0.0053,0.0063,0.0136,0.0086,0.0048,0.0115,0.0115,0.0116,0.0184,0.0192,0.0087,0.0087,0.0087,0,-0.0662,-0.0676,-0.0625,-0.0623,-0.0598,-0.0515,-0.0514,-0.0461,-0.0371,-0.0338,-0.0315,-0.0152,-0.0078,0.0007,0.0008,0.005,0.01,0.0059,0.0105,0.0107,0.011,0.018,0.019,0.0082,0.0083,0.0083,0.0084,0,-0.0717,-0.0722,-0.0726,-0.0699,-0.0663,-0.0648,-0.057,-0.053,-0.0477,-0.0414,-0.0326,-0.022,-0.0123,-0.0089,-0.0036,0.0025,0.0058,0.0083,0.0113,0.0103,0.0179,0.0191,0.0075,0.0077,0.0078,0.008,0,0,-0.0796,-0.0774,-0.0773,-0.0771,-0.0702,-0.0676,-0.0639,-0.0572,-0.0541,-0.0448,-0.0397,-0.0278,-0.0216,-0.0156,-0.0075,-0.0012,0.0045,0.0034,0.004,0.0086,0.0196,0.0257,0.0277,0.0073,0.0075,0.0076,0.024,0,-0.0852,-0.0881,-0.0841,-0.0846,-0.0849,-0.076,-0.0728,-0.0653,-0.0575,-0.0502,-0.0384,-0.0304,-0.0241,-0.0195,-0.0124,0.0008,0.0073,-0.0001,0.0213,0.022,0.0262,0.0291,0.0324,0.0477,0.0252,0.0254,0.0256,0,-0.0913,-0.0924,-0.0954,-0.0921,-0.0911,-0.0894,-0.0818,-0.0775,-0.0652,-0.059,-0.0487,-0.0387,-0.0266,-0.0223,-0.0012,-0.0063,0.0052,0.0151,0.016,0.026,0.0303,0.0453,0.0508,0.0697,0.0275,0.0273,0.0272,0,-0.0994,-0.0993,-0.1024,-0.1012,-0.0964,-0.0952,-0.0913,-0.0808,-0.0766,-0.0642,-0.0592,-0.0435,-0.035,-0.0191,0.0019,0.0002,0.0252,0.0257,0.0424,0.0429,0.0524,0.0536,0.0775,0.0394,0.0394,0.0393,0.0393,0,-0.1064,-0.1081,-0.1069,-0.1082,-0.1099,-0.1031,-0.1014,-0.0947,-0.0851,-0.08,-0.0647,-0.0563,-0.0342,-0.0164,0.001,0.0268,0.0251,0.043,0.0481,0.0491,0.0498,0.072,0.0783,0.0399,0.0398,0.0397,0.0396,0,-0.1134,-0.1133,-0.1163,-0.1146,-0.114,-0.1148,-0.1092,-0.1069,-0.0969,-0.0897,-0.0862,-0.0653,-0.0415,-0.017,0.011,0.0263,0.0624,0.0588,0.0589,0.0636,0.0946,0.1,0.1289,0.1398,0.0792,0.0794,0.0797,0,-0.1172,-0.1202,-0.122,-0.1242,-0.1236,-0.1235,-0.1227,-0.1141,-0.1106,-0.0941,-0.0907,-0.0671,-0.0475,-0.0024,0.0288,0.0625,0.0758,0.0841,0.0813,0.0988,0.1087,0.1124,0.1196,0.0904,0.0907,0.0909,0.0911,0,-0.1233,-0.124,-0.1265,-0.132,-0.1337,-0.1345,-0.1325,-0.1321,-0.1208,-0.1121,-0.0957,-0.0789,-0.034,0.0067,0.0506,0.0708,0.0981,0.0898,0.109,0.1209,0.1257,0.1377,0.0768,0.0932,0.093,0.0928,0.0927,0.0926,-0.1265,-0.1303,-0.134,-0.1381,-0.1412,-0.1436,-0.1438,-0.1398,-0.1339,-0.1185,-0.1014,-0.0718,-0.0129,0.0507,0.0743,0.1235,0.1182,0.1369,0.1426,0.1453,0.1549,0.0986,0.1194,0.1193,0.1193,0.1192,0.1192,0,-0.1298,-0.1334,-0.1389,-0.1444,-0.1485,-0.1477,-0.1479,-0.145,-0.1384,-0.1198,-0.1001,-0.0352,0.024,0.0782,0.1474,0.1743,0.1793,0.1876,0.1941,0.1993,0.1519,0.1514,0.1789,0.1789,0.1788,0.1788,0.1788,0.1788,-0.1318,-0.137,-0.1398,-0.1477,-0.1516,-0.1539,-0.1538,-0.148,-0.1344,-0.1014,-0.0658,-0.0364,0.0425,0.1536,0.2176,0.2238,0.2452,0.2439,0.2559,0.2227,0.2184,0.2142,0.2157,0.2562,0.2562,0.3015,0.3019,0.3023]}],[{"header":{"parameterUnit":"m.s-1","parameterCategory":2,"la1":30.2991,"la2":30.254,"lo1":-89.0895,"lo2":-89.0444,"dy":0.0017,"dx":0.0017,"nx":28,"ny":28,"refTime":"2025-04-01T03:00:00:Z","depth":"2","parameterNumber":2,"parameterNumberName":"U-component_of_CURRENTS"},"data":[0,0,0,0,0,0,0,0,0,0,0,0,0,0,0,0,0,0,0,0,0,0,0,0,0,0,0,0,0,0,0,0,0,0,0,0,0,0,0,0,0,0,0,0,0,0,0,0,0,0,0,0,0,0,0,0,0,0,-0.2758,-0.2759,0,-0.2832,-0.2833,-0.2833,-0.2805,-0.2804,-0.2802,-0.2801,-0.2782,-0.2783,-0.2784,0,0,0,0,0,0,0,0,0,0,0,0,0,-0.2626,-0.2628,-0.2758,-0.2759,-0.276,-0.2832,-0.2833,-0.2833,-0.2805,-0.2804,-0.2802,-0.28,-0.2782,-0.2783,-0.2784,0,0,0,0,0,0,0,0,0,0,0,0,0,-0.2686,-0.2629,-0.2757,-0.2758,-0.2759,-0.2832,-0.2833,-0.2833,-0.2806,-0.2803,-0.2801,-0.28,-0.2782,-0.2783,-0.2784,-0.2832,0,0,-0.2788,-0.2788,0,0,0,0,0,0,0,0,-0.2683,-0.2691,-0.2756,-0.2758,-0.2759,-0.281,-0.278,-0.283,-0.2806,-0.2784,-0.2801,-0.2799,-0.2787,-0.2788,-0.2802,-0.2831,-0.283,-0.2788,-0.2788,-0.2789,-0.2789,0,0,0,0,0,0,0,-0.2679,-0.2688,-0.2783,-0.2758,-0.276,-0.2766,-0.2772,-0.2789,-0.2791,-0.2786,-0.2785,-0.28,-0.2786,-0.2801,-0.2801,-0.283,-0.2788,-0.2789,-0.2789,-0.279,-0.291,-0.2913,0,0,0,0,0,0,-0.2678,-0.2684,-0.2781,-0.2786,-0.272,-0.277,-0.2776,-0.2793,-0.2793,-0.2793,-0.2801,-0.2798,-0.28,-0.28,-0.28,-0.2864,-0.2789,-0.279,-0.2791,-0.2908,-0.2911,-0.2913,0,0,0,0,0,0,-0.2675,-0.2686,-0.2778,-0.2739,-0.2752,-0.2775,-0.2794,-0.2796,-0.2815,-0.2807,-0.2804,-0.2819,-0.2799,-0.2799,-0.2825,-0.2862,-0.2791,-0.2792,-0.2905,-0.2909,-0.2912,-0.2987,0,0,0,0,0,0,-0.2671,-0.2685,-0.2703,-0.2739,-0.2754,-0.2832,-0.2796,-0.2799,-0.2829,-0.2825,-0.2822,-0.2817,-0.2797,-0.2824,-0.2826,-0.2863,-0.2792,-0.2902,-0.2907,-0.2911,-0.2981,-0.2993,-0.3003,0,0,0,0,0,-0.2666,-0.2712,-0.2704,-0.2716,-0.2776,-0.2834,-0.2843,-0.2849,-0.2832,-0.2855,-0.2848,-0.2818,-0.2855,-0.2827,-0.2829,-0.2867,-0.2899,-0.2905,-0.2911,-0.2977,-0.2991,-0.3002,0,0,0,0,0,0,-0.2658,-0.2715,-0.2706,-0.2763,-0.2795,-0.2831,-0.2862,-0.2864,-0.288,-0.2875,-0.2849,-0.2847,-0.2886,-0.2874,-0.2844,-0.2918,-0.2874,-0.288,-0.2923,-0.2936,-0.2947,-0.2909,-0.2793,0,0,0,0,0,-0.2667,-0.2714,-0.2754,-0.2795,-0.2816,-0.2838,-0.2864,-0.2874,-0.2893,-0.2899,-0.2896,-0.2899,-0.2916,-0.2921,-0.2935,-0.2977,-0.2932,-0.3005,-0.3016,-0.3024,-0.2998,-0.2966,-0.297,-0.2932,-0.2932,-0.2932,0,0,-0.2672,-0.2711,-0.2734,-0.2797,-0.282,-0.2866,-0.2848,-0.2902,-0.2938,-0.2896,-0.294,-0.294,-0.2938,-0.2981,-0.2998,-0.2971,-0.3022,-0.3032,-0.3039,-0.3007,-0.2972,-0.2975,-0.2977,-0.2936,-0.2935,-0.2934,0,0,-0.271,-0.2741,-0.2789,-0.2825,-0.288,-0.2903,-0.2921,-0.2967,-0.2984,-0.3037,-0.3012,-0.3023,-0.3065,-0.3054,-0.3057,-0.3138,-0.3083,-0.3163,-0.3179,-0.315,-0.3151,-0.3151,-0.3129,-0.3127,-0.3162,-0.3163,-0.3163,0,-0.2711,-0.2767,-0.2811,-0.2862,-0.2888,-0.292,-0.296,-0.3006,-0.3052,-0.3054,-0.3061,-0.3088,-0.3093,-0.3109,-0.3141,-0.3158,-0.3132,-0.3128,-0.3159,-0.3158,-0.3157,-0.3134,-0.313,-0.3167,-0.3166,-0.3166,-0.3166,0,-0.2771,-0.2817,-0.2852,-0.2918,-0.2959,-0.3007,-0.3063,-0.3106,-0.313,-0.3142,-0.3174,-0.3183,-0.3176,-0.3207,-0.3201,-0.3209,-0.3192,-0.3177,-0.3115,-0.3164,-0.3139,-0.3134,-0.3173,-0.3171,-0.317,-0.3169,0,0,-0.2759,-0.287,-0.2878,-0.2899,-0.2987,-0.302,-0.3098,-0.3145,-0.3162,-0.3214,-0.3217,-0.3264,-0.3237,-0.3238,-0.3235,-0.322,-0.3218,-0.3201,-0.3197,-0.3159,-0.3156,-0.3091,-0.3078,-0.3206,-0.3205,-0.3204,-0.315,0,-0.2777,-0.2862,-0.292,-0.2984,-0.302,-0.3075,-0.3132,-0.318,-0.3216,-0.3237,-0.3244,-0.3254,-0.3263,-0.3256,-0.3247,-0.3224,-0.3203,-0.3234,-0.3129,-0.3126,-0.3044,-0.3069,-0.2847,-0.2774,-0.3145,-0.3144,-0.3143,0,-0.2798,-0.2851,-0.2914,-0.2988,-0.3007,-0.3054,-0.3107,-0.3164,-0.3209,-0.3231,-0.3234,-0.3238,-0.3237,-0.3236,-0.3198,-0.3218,-0.3185,-0.3165,-0.3162,-0.3057,-0.3049,-0.2781,-0.275,-0.3133,-0.3134,-0.3135,-0.3135,0,-0.273,-0.2837,-0.2876,-0.2905,-0.3005,-0.3033,-0.308,-0.314,-0.3167,-0.3205,-0.3212,-0.3215,-0.3211,-0.318,-0.3168,-0.3175,-0.3115,-0.3116,-0.302,-0.3016,-0.2778,-0.2754,-0.3058,-0.3058,-0.3058,-0.3058,-0.3058,0,-0.2711,-0.2738,-0.2847,-0.2863,-0.2892,-0.2982,-0.3005,-0.3058,-0.3115,-0.3119,-0.3182,-0.3182,-0.3195,-0.3178,-0.3154,-0.3074,-0.31,-0.3006,-0.2988,-0.2806,-0.2786,-0.3053,-0.3053,-0.3056,-0.3057,-0.3057,-0.3057,0,-0.2615,-0.2699,-0.2733,-0.2832,-0.2858,-0.2869,-0.295,-0.2963,-0.3044,-0.3055,-0.3064,-0.3141,-0.3125,-0.313,-0.3084,-0.3043,-0.2982,-0.2941,-0.2739,-0.2697,-0.2906,-0.2911,-0.2816,-0.2813,-0.2811,-0.2809,-0.2807,0,-0.257,-0.2581,-0.2669,-0.2675,-0.2714,-0.2756,-0.2777,-0.2891,-0.2909,-0.3016,-0.3003,-0.3038,-0.3017,-0.296,-0.2892,-0.2815,-0.2904,-0.2569,-0.2535,-0.2884,-0.2877,-0.2886,-0.2895,-0.2264,-0.2258,-0.2253,-0.2249,0,-0.2448,-0.2481,-0.2507,-0.2525,-0.2551,-0.258,-0.2631,-0.2647,-0.2772,-0.28,-0.2837,-0.2841,-0.2824,-0.266,-0.2595,-0.2521,-0.257,-0.2466,-0.2847,-0.2375,-0.2362,-0.2357,-0.2382,-0.2204,-0.2209,-0.2212,-0.2215,-0.2216,-0.2325,-0.2307,-0.2338,-0.2341,-0.2371,-0.238,-0.235,-0.2428,-0.2444,-0.2465,-0.2591,-0.2533,-0.2529,-0.2317,-0.221,-0.2133,-0.2303,-0.219,-0.2205,-0.2225,-0.2186,-0.2171,-0.197,-0.1973,-0.1976,-0.1978,-0.198,0,-0.2156,-0.2152,-0.2146,-0.2148,-0.2114,-0.2196,-0.2218,-0.2167,-0.2133,-0.2204,-0.2209,-0.2003,-0.191,-0.1924,-0.1741,-0.1707,-0.168,-0.163,-0.1595,-0.164,-0.1679,-0.1613,-0.1244,-0.1242,-0.124,-0.1238,0,0,-0.2061,-0.199,-0.1994,-0.1886,-0.1887,-0.1796,-0.1773,-0.1736,-0.1743,-0.1675,-0.1656,-0.181,-0.1864,-0.1557,-0.1482,-0.134,-0.1472,-0.1268,-0.1855,-0.1857,-0.1894,-0.1996,-0.1944,0,0,0,0,0]},{"header":{"parameterUnit":"m.s-1","parameterCategory":2,"la1":30.2991,"la2":30.254,"lo1":-89.0895,"lo2":-89.0444,"dy":0.0017,"dx":0.0017,"nx":28,"ny":28,"refTime":"2025-04-01T03:00:00:Z","depth":"2","parameterNumber":3,"parameterNumberName":"V-component_of_CURRENTS"},"data":[0,0,0,0,0,0,0,0,0,0,0,0,0,0,0,0,0,0,0,0,0,0,0,0,0,0,0,0,0,0,0,0,0,0,0,0,0,0,0,0,0,0,0,0,0,0,0,0,0,0,0,0,0,0,0,0,0,0,-0.0332,-0.0331,0,-0.0232,-0.0231,-0.0229,-0.0154,-0.0153,-0.0153,-0.0152,0.0009,0.0013,0.0016,0,0,0,0,0,0,0,0,0,0,0,0,0,-0.0376,-0.0376,-0.0332,-0.0331,-0.033,-0.0232,-0.0231,-0.0229,-0.0154,-0.0153,-0.0153,-0.0152,0.0008,0.0012,0.0017,0,0,0,0,0,0,0,0,0,0,0,0,0,-0.0322,-0.0376,-0.0332,-0.0283,-0.0278,-0.0233,-0.023,-0.0228,-0.0154,-0.0153,-0.0152,-0.0152,0.0006,0.0012,0.0017,0.004,0,0,0.0035,0.0038,0,0,0,0,0,0,0,0,-0.0325,-0.032,-0.0291,-0.0286,-0.028,-0.0207,-0.0187,-0.0136,-0.0154,-0.0198,-0.0152,-0.0151,-0.006,-0.0049,-0.0028,0.0048,0.0055,0.0036,0.0039,0.0042,0.0043,0,0,0,0,0,0,0,-0.0329,-0.0324,-0.029,-0.029,-0.0284,-0.0238,-0.023,-0.0177,-0.0131,-0.0194,-0.0189,-0.0182,-0.0056,-0.0034,-0.0024,0.0057,0.0036,0.0041,0.0044,0.0047,0.0182,0.0182,0,0,0,0,0,0,-0.0352,-0.0328,-0.0293,-0.0287,-0.0305,-0.0238,-0.0229,-0.0229,-0.0132,-0.0118,-0.0183,-0.0179,-0.0044,-0.0031,-0.0018,0.0024,0.0042,0.0047,0.0051,0.0182,0.0182,0.0183,0,0,0,0,0,0,-0.0354,-0.0351,-0.0297,-0.0307,-0.0297,-0.0239,-0.0239,-0.0227,-0.0206,-0.0125,-0.0109,-0.0174,-0.0043,-0.0026,0.0028,0.003,0.005,0.0055,0.0182,0.0182,0.0182,0.0101,0,0,0,0,0,0,-0.0356,-0.0352,-0.0363,-0.0309,-0.0297,-0.0279,-0.0239,-0.0226,-0.0204,-0.0198,-0.0112,-0.0096,-0.0041,0.0019,0.0034,0.0039,0.006,0.0182,0.0182,0.0182,0.0104,0.0098,0.0094,0,0,0,0,0,-0.0358,-0.038,-0.0364,-0.036,-0.0314,-0.028,-0.027,-0.0224,-0.0205,-0.0201,-0.014,-0.0099,0.0031,0.0024,0.0041,0.0048,0.0182,0.0182,0.0182,0.0106,0.0099,0.0094,0,0,0,0,0,0,-0.0401,-0.0373,-0.0355,-0.0366,-0.033,-0.0269,-0.0265,-0.0232,-0.0182,-0.0176,-0.0097,-0.0077,-0.003,0.0019,0.0009,0.0088,0.0113,0.0117,0.0049,0.0044,0.0039,0.0019,0.0065,0,0,0,0,0,-0.0419,-0.0431,-0.0385,-0.0394,-0.038,-0.0324,-0.0306,-0.0275,-0.0223,-0.0201,-0.0139,-0.0073,-0.0015,0.002,0.0075,0.0119,0.0169,0.0135,0.013,0.0126,0.0122,0.0196,0.0198,0.0183,0.0183,0.0183,0,0,-0.0439,-0.0425,-0.0432,-0.0404,-0.0372,-0.036,-0.0311,-0.0292,-0.0276,-0.0191,-0.0151,-0.0091,-0.0009,0.0039,0.0065,0.0081,0.0155,0.0126,0.0121,0.012,0.0197,0.0198,0.0199,0.0183,0.0183,0.0183,0,0,-0.0487,-0.0472,-0.0496,-0.047,-0.0435,-0.0396,-0.0396,-0.0338,-0.0306,-0.0263,-0.0197,-0.0136,-0.0053,0.0013,0.0055,0.0058,0.0122,0.0073,0.0041,0.0112,0.0114,0.0116,0.0173,0.0181,0.0076,0.0076,0.0076,0,-0.0512,-0.0532,-0.0495,-0.0501,-0.0484,-0.0418,-0.0424,-0.0383,-0.0313,-0.0283,-0.0264,-0.0126,-0.0063,0.0014,0.0013,0.0047,0.0091,0.0053,0.0105,0.0108,0.0112,0.017,0.018,0.0072,0.0072,0.0073,0.0073,0,-0.057,-0.0579,-0.0588,-0.0574,-0.055,-0.0545,-0.0483,-0.0453,-0.0408,-0.0354,-0.0278,-0.0186,-0.01,-0.0072,-0.0029,0.0032,0.0054,0.0083,0.0114,0.0108,0.017,0.0182,0.0066,0.0068,0.0069,0.007,0,0,-0.0639,-0.0633,-0.0635,-0.0636,-0.0587,-0.0572,-0.0543,-0.0489,-0.0462,-0.0387,-0.0337,-0.0237,-0.0179,-0.0128,-0.0056,0.0005,0.0064,0.0044,0.005,0.0091,0.0212,0.0251,0.0268,0.0099,0.0101,0.0102,0.0242,0,-0.0692,-0.073,-0.0701,-0.0715,-0.0724,-0.065,-0.0626,-0.0565,-0.0496,-0.0432,-0.0324,-0.0253,-0.0201,-0.0159,-0.0089,0.0029,0.0092,0.0023,0.0221,0.0227,0.0255,0.0282,0.024,0.0363,0.0254,0.0256,0.0257,0,-0.0757,-0.0771,-0.0806,-0.0784,-0.0778,-0.0771,-0.0707,-0.0674,-0.0564,-0.0508,-0.0412,-0.0321,-0.0209,-0.0172,0.0023,-0.0026,0.0079,0.0167,0.0176,0.0249,0.0288,0.0356,0.0389,0.0277,0.0276,0.0274,0.0273,0,-0.0829,-0.0838,-0.087,-0.0863,-0.083,-0.0823,-0.0793,-0.0702,-0.0667,-0.0552,-0.0507,-0.0359,-0.0281,-0.0132,0.0052,0.0038,0.0263,0.0276,0.0413,0.0417,0.0439,0.0443,0.0409,0.0409,0.0408,0.0408,0.0407,0,-0.0897,-0.0919,-0.0911,-0.0928,-0.0948,-0.0894,-0.0885,-0.0829,-0.0743,-0.07,-0.0555,-0.0482,-0.027,-0.0111,0.0046,0.0271,0.0268,0.0415,0.0462,0.041,0.0408,0.038,0.0375,0.0413,0.0412,0.0411,0.041,0,-0.0969,-0.0969,-0.1003,-0.0991,-0.0989,-0.1002,-0.0961,-0.0943,-0.0855,-0.0793,-0.076,-0.0566,-0.0355,-0.013,0.0129,0.0266,0.0474,0.0553,0.047,0.0506,0.0577,0.0566,0.0717,0.072,0.0722,0.0724,0.0726,0,-0.1012,-0.1041,-0.1059,-0.1082,-0.1082,-0.1088,-0.1087,-0.1013,-0.0982,-0.0839,-0.081,-0.0597,-0.0424,-0.0023,0.0254,0.0553,0.0549,0.068,0.0653,0.0582,0.0612,0.0597,0.0584,0.0649,0.065,0.0651,0.0652,0,-0.1078,-0.1084,-0.111,-0.1161,-0.1182,-0.1193,-0.1182,-0.118,-0.1082,-0.1006,-0.0865,-0.0717,-0.0327,0.0003,0.0389,0.0556,0.0628,0.0704,0.0678,0.0572,0.0528,0.0554,0.0541,0.0658,0.0657,0.0657,0.0656,0.0656,-0.1115,-0.1153,-0.1185,-0.1226,-0.1258,-0.128,-0.1286,-0.1251,-0.1201,-0.1068,-0.0925,-0.0674,-0.0351,0.0201,0.0476,0.0729,0.0725,0.0783,0.0776,0.077,0.0732,0.0694,0.0847,0.0847,0.0848,0.0848,0.0848,0,-0.1151,-0.1186,-0.1239,-0.1289,-0.1328,-0.1324,-0.1327,-0.1299,-0.1241,-0.1085,-0.0917,-0.0555,-0.0169,0.017,0.0577,0.082,0.0791,0.0852,0.0761,0.0755,0.0748,0.0705,0.0816,0.0816,0.0817,0.0817,0,0,-0.1171,-0.1222,-0.1247,-0.1322,-0.136,-0.1384,-0.1385,-0.1325,-0.1207,-0.1044,-0.0854,-0.0585,-0.0164,0.0113,0.042,0.0631,0.0627,0.0647,0.0649,0.05,0.0491,0.0687,0.0611,0,0,0,0,0]}],[{"header":{"parameterUnit":"m.s-1","parameterCategory":2,"la1":30.2991,"la2":30.254,"lo1":-89.0895,"lo2":-89.0444,"dy":0.0017,"dx":0.0017,"nx":28,"ny":28,"refTime":"2025-04-01T03:00:00:Z","depth":"4","parameterNumber":2,"parameterNumberName":"U-component_of_CURRENTS"},"data":[0,0,0,0,0,0,0,0,0,0,0,0,0,0,0,0,0,0,0,0,0,0,0,0,0,0,0,0,0,0,0,0,0,0,0,0,0,0,0,0,0,0,0,0,0,0,0,0,0,0,0,0,0,0,0,0,0,0,-0.1691,-0.1692,0,-0.1761,-0.1762,-0.1763,-0.1803,-0.1804,-0.1804,-0.1804,-0.1896,-0.1898,-0.19,0,0,0,0,0,0,0,0,0,0,0,0,0,-0.1628,-0.1628,-0.1691,-0.1692,-0.1693,-0.1761,-0.1762,-0.1763,-0.1803,-0.1804,-0.1804,-0.1805,-0.1895,-0.1897,-0.19,0,0,0,0,0,0,0,0,0,0,0,0,0,-0.167,-0.1629,-0.1691,-0.1723,-0.1727,-0.1761,-0.1762,-0.1763,-0.1803,-0.1804,-0.1804,-0.1805,-0.1894,-0.1897,-0.19,-0.191,0,0,-0.191,-0.1911,0,0,0,0,0,0,0,0,-0.1668,-0.1672,-0.1717,-0.1721,-0.1725,-0.1776,-0.1773,-0.1814,-0.1803,-0.1772,-0.1804,-0.1805,-0.1858,-0.1864,-0.1874,-0.1914,-0.1918,-0.191,-0.1912,-0.1913,-0.1914,0,0,0,0,0,0,0,-0.1665,-0.167,-0.1717,-0.1718,-0.1723,-0.1746,-0.1752,-0.1781,-0.181,-0.1775,-0.1779,-0.1789,-0.186,-0.187,-0.1876,-0.1919,-0.191,-0.1913,-0.1915,-0.1916,-0.2052,-0.2053,0,0,0,0,0,0,-0.1658,-0.1667,-0.1715,-0.1719,-0.1699,-0.1747,-0.1754,-0.1757,-0.181,-0.1819,-0.1789,-0.1791,-0.1865,-0.1872,-0.1879,-0.1976,-0.1913,-0.1916,-0.1918,-0.205,-0.2052,-0.2054,0,0,0,0,0,0,-0.1656,-0.1661,-0.1712,-0.1697,-0.1705,-0.1748,-0.1752,-0.1759,-0.1797,-0.182,-0.1829,-0.1824,-0.1865,-0.1875,-0.1938,-0.1977,-0.1918,-0.1921,-0.2048,-0.205,-0.2053,-0.2116,0,0,0,0,0,0,-0.1654,-0.166,-0.1672,-0.1696,-0.1706,-0.1755,-0.1751,-0.176,-0.1802,-0.1807,-0.1853,-0.186,-0.1867,-0.1934,-0.1942,-0.198,-0.1923,-0.2046,-0.2049,-0.2052,-0.2112,-0.2121,-0.2128,0,0,0,0,0,-0.1651,-0.1662,-0.1672,-0.1679,-0.1717,-0.1757,-0.1765,-0.1795,-0.1804,-0.183,-0.1865,-0.186,-0.1959,-0.1938,-0.1947,-0.1987,-0.2044,-0.2048,-0.2052,-0.2108,-0.2119,-0.2128,0,0,0,0,0,0,-0.1642,-0.1668,-0.1679,-0.1698,-0.1737,-0.1765,-0.1793,-0.1812,-0.1858,-0.1872,-0.1887,-0.1897,-0.1964,-0.1968,-0.1944,-0.2034,-0.1999,-0.2005,-0.2039,-0.2049,-0.2057,-0.2059,-0.1926,0,0,0,0,0,-0.1644,-0.1659,-0.1693,-0.1712,-0.1734,-0.1769,-0.1793,-0.1819,-0.1856,-0.1878,-0.1914,-0.1949,-0.1981,-0.201,-0.2038,-0.2094,-0.2082,-0.2123,-0.2131,-0.2138,-0.2146,-0.2172,-0.2183,-0.2066,-0.2066,-0.2066,0,0,-0.1648,-0.1662,-0.1673,-0.1712,-0.1743,-0.1788,-0.1786,-0.1836,-0.1881,-0.1881,-0.1962,-0.1981,-0.2001,-0.2062,-0.2091,-0.2076,-0.2161,-0.2143,-0.2149,-0.2153,-0.2177,-0.2188,-0.2198,-0.2069,-0.2068,-0.2068,0,0,-0.1661,-0.1677,-0.1701,-0.1738,-0.1792,-0.1817,-0.1839,-0.1894,-0.193,-0.2002,-0.2009,-0.2056,-0.2117,-0.2137,-0.2151,-0.2222,-0.22,-0.2232,-0.2283,-0.2308,-0.2317,-0.2326,-0.2305,-0.2311,-0.224,-0.224,-0.224,0,-0.1668,-0.1697,-0.1718,-0.1758,-0.1797,-0.1835,-0.1887,-0.1927,-0.1999,-0.2038,-0.2041,-0.2138,-0.2151,-0.2216,-0.2236,-0.2241,-0.2236,-0.2243,-0.2318,-0.2326,-0.2333,-0.231,-0.2316,-0.2244,-0.2243,-0.2243,-0.2243,0,-0.1702,-0.174,-0.1761,-0.1821,-0.1866,-0.1917,-0.1976,-0.2034,-0.2081,-0.2122,-0.221,-0.2235,-0.229,-0.23,-0.229,-0.2355,-0.2325,-0.232,-0.2291,-0.2349,-0.232,-0.2325,-0.2249,-0.2248,-0.2247,-0.2246,0,0,-0.1688,-0.1769,-0.1783,-0.1822,-0.1908,-0.1947,-0.2031,-0.2114,-0.2175,-0.2247,-0.2321,-0.2376,-0.2393,-0.2409,-0.2409,-0.243,-0.2462,-0.2402,-0.2402,-0.2376,-0.2491,-0.232,-0.2308,-0.2476,-0.2477,-0.2479,-0.2442,0,-0.1717,-0.1792,-0.1833,-0.1921,-0.1967,-0.2034,-0.2108,-0.219,-0.2257,-0.2338,-0.238,-0.2446,-0.2433,-0.246,-0.2486,-0.2469,-0.2483,-0.2471,-0.2443,-0.2441,-0.2279,-0.2311,-0.2485,-0.2445,-0.2446,-0.2447,-0.2447,0,-0.1747,-0.1789,-0.1878,-0.1971,-0.2002,-0.2068,-0.2191,-0.2261,-0.2372,-0.2424,-0.2501,-0.2528,-0.2579,-0.2552,-0.2574,-0.2569,-0.2539,-0.2519,-0.2517,-0.234,-0.228,-0.2381,-0.2456,-0.2455,-0.2455,-0.2454,-0.2453,0,-0.1726,-0.1825,-0.1894,-0.193,-0.2043,-0.2107,-0.2178,-0.2298,-0.2357,-0.2479,-0.2522,-0.2601,-0.2625,-0.2633,-0.259,-0.2592,-0.2584,-0.258,-0.2398,-0.2384,-0.2522,-0.2513,-0.2595,-0.2595,-0.2595,-0.2595,-0.2595,0,-0.173,-0.1789,-0.1895,-0.1933,-0.2017,-0.2111,-0.2215,-0.2296,-0.2409,-0.2459,-0.2561,-0.2587,-0.2648,-0.2645,-0.2614,-0.2502,-0.2605,-0.2402,-0.237,-0.2545,-0.254,-0.2523,-0.2515,-0.2594,-0.2594,-0.2594,-0.2595,0,-0.1692,-0.1771,-0.1842,-0.1965,-0.2009,-0.2071,-0.2206,-0.2262,-0.239,-0.2453,-0.2486,-0.2581,-0.2568,-0.2589,-0.2577,-0.2495,-0.2431,-0.2367,-0.2527,-0.2505,-0.2207,-0.2204,-0.2163,-0.2157,-0.2152,-0.2147,-0.2144,0,-0.1665,-0.1707,-0.1837,-0.1868,-0.1926,-0.2029,-0.2086,-0.2234,-0.2273,-0.2411,-0.2407,-0.2462,-0.2494,-0.2332,-0.2387,-0.2315,-0.2288,-0.2241,-0.2249,-0.2194,-0.2167,-0.2172,-0.2175,-0.2135,-0.2134,-0.2132,-0.2131,0,-0.1594,-0.1665,-0.1712,-0.1779,-0.1845,-0.1907,-0.1996,-0.2011,-0.2152,-0.2288,-0.2257,-0.2245,-0.2223,-0.2205,-0.216,-0.2116,-0.227,-0.2186,-0.2197,-0.2204,-0.2159,-0.2139,-0.2149,-0.2113,-0.2116,-0.2117,-0.2118,0,-0.1517,-0.1533,-0.1602,-0.1644,-0.1719,-0.1735,-0.1817,-0.1842,-0.1903,-0.2054,-0.2032,-0.2094,-0.2186,-0.2099,-0.206,-0.2001,-0.1976,-0.1913,-0.1938,-0.1959,-0.191,-0.1825,-0.1643,0,0,0,0,0,-0.1412,-0.1419,-0.145,-0.1485,-0.1558,-0.16,-0.1716,-0.1798,-0.1938,-0.1854,-0.1938,-0.1907,-0.1862,-0.1904,-0.1796,-0.1971,-0.1986,-0.184,-0.1929,-0.2012,-0.2033,-0.1996,0,0,0,0,0,0,-0.1326,-0.1375,-0.139,-0.1336,-0.1331,-0.1392,-0.1459,-0.1566,-0.1533,-0.1682,-0.1661,-0.1778,-0.1759,-0.1876,-0.1749,-0.176,-0.1773,-0.1893,-0.1887,-0.2,-0.2019,-0.2036,-0.2005,0,0,0,0,0]},{"header":{"parameterUnit":"m.s-1","parameterCategory":2,"la1":30.2991,"la2":30.254,"lo1":-89.0895,"lo2":-89.0444,"dy":0.0017,"dx":0.0017,"nx":28,"ny":28,"refTime":"2025-04-01T03:00:00:Z","depth":"4","parameterNumber":3,"parameterNumberName":"V-component_of_CURRENTS"},"data":[0,0,0,0,0,0,0,0,0,0,0,0,0,0,0,0,0,0,0,0,0,0,0,0,0,0,0,0,0,0,0,0,0,0,0,0,0,0,0,0,0,0,0,0,0,0,0,0,0,0,0,0,0,0,0,0,0,0,-0.0216,-0.0216,0,-0.0163,-0.0162,-0.0161,-0.011,-0.0109,-0.0109,-0.0109,-0.0002,-0.0,0.0002,0,0,0,0,0,0,0,0,0,0,0,0,0,-0.0227,-0.0227,-0.0216,-0.0216,-0.0215,-0.0163,-0.0162,-0.0161,-0.011,-0.0109,-0.0109,-0.0108,-0.0003,-0.0,0.0002,0,0,0,0,0,0,0,0,0,0,0,0,0,-0.0201,-0.0227,-0.0216,-0.0185,-0.0182,-0.0163,-0.0162,-0.0161,-0.011,-0.0109,-0.0109,-0.0108,-0.0004,-0.0001,0.0003,0.0011,0,0,0.0014,0.0015,0,0,0,0,0,0,0,0,-0.0202,-0.02,-0.019,-0.0187,-0.0183,-0.0144,-0.0127,-0.0102,-0.011,-0.0135,-0.0109,-0.0108,-0.0047,-0.004,-0.0029,0.0016,0.002,0.0014,0.0016,0.0018,0.0019,0,0,0,0,0,0,0,-0.0204,-0.0202,-0.0193,-0.019,-0.0186,-0.0158,-0.0154,-0.0122,-0.0093,-0.0133,-0.0129,-0.0127,-0.0044,-0.0033,-0.0026,0.0022,0.0014,0.0017,0.0019,0.0021,0.0093,0.0093,0,0,0,0,0,0,-0.0219,-0.0204,-0.0195,-0.0191,-0.0194,-0.0159,-0.0154,-0.0156,-0.0094,-0.0085,-0.0128,-0.0125,-0.0039,-0.003,-0.0022,-0.0002,0.0018,0.0021,0.0023,0.0093,0.0093,0.0093,0,0,0,0,0,0,-0.0219,-0.0218,-0.0197,-0.0198,-0.0193,-0.016,-0.0162,-0.0155,-0.0144,-0.0092,-0.0081,-0.0125,-0.0038,-0.0027,0.0004,0.0003,0.0023,0.0026,0.0093,0.0093,0.0093,0.0035,0,0,0,0,0,0,-0.022,-0.0219,-0.0228,-0.0199,-0.0194,-0.0194,-0.0163,-0.0155,-0.0145,-0.0141,-0.0085,-0.0075,-0.0037,-0.0002,0.0007,0.0008,0.0029,0.0094,0.0093,0.0093,0.0037,0.0032,0.0028,0,0,0,0,0,-0.022,-0.0237,-0.0229,-0.0228,-0.0207,-0.0195,-0.019,-0.0161,-0.0146,-0.0148,-0.0107,-0.0077,0.0002,0.0,0.0011,0.0013,0.0094,0.0093,0.0093,0.0039,0.0033,0.0029,0,0,0,0,0,0,-0.0243,-0.0233,-0.0223,-0.0235,-0.022,-0.0187,-0.0188,-0.0169,-0.0139,-0.0134,-0.008,-0.0067,-0.0041,-0.0008,-0.0011,0.0032,0.0053,0.0055,0.0008,0.0004,-0.0001,-0.0008,0.0032,0,0,0,0,0,-0.0255,-0.0266,-0.0246,-0.0256,-0.0252,-0.0222,-0.0214,-0.0197,-0.0167,-0.0154,-0.0115,-0.0072,-0.0036,-0.0012,0.002,0.0044,0.0088,0.0053,0.0049,0.0045,0.0046,0.0118,0.012,0.0091,0.0091,0.0091,0,0,-0.0269,-0.0263,-0.027,-0.0262,-0.0248,-0.025,-0.0215,-0.0211,-0.0207,-0.0147,-0.0129,-0.0089,-0.0035,-0.0008,0.0007,0.0022,0.0072,0.0044,0.0041,0.0044,0.0117,0.012,0.0123,0.009,0.0091,0.0091,0,0,-0.0303,-0.0295,-0.0317,-0.0308,-0.0297,-0.0276,-0.0279,-0.0252,-0.0233,-0.0215,-0.0168,-0.0125,-0.008,-0.003,-0.0002,-0.0008,0.0043,-0.0005,-0.0024,0.0044,0.0048,0.0051,0.0093,0.0101,-0.0001,-0.0001,-0.0002,0,-0.0319,-0.0341,-0.032,-0.0334,-0.0331,-0.0293,-0.0308,-0.0286,-0.0251,-0.023,-0.0219,-0.013,-0.0085,-0.0031,-0.0035,-0.0015,0.0019,-0.0011,0.004,0.0044,0.0049,0.0092,0.0101,-0.0004,-0.0004,-0.0004,-0.0003,0,-0.0367,-0.0381,-0.0391,-0.0396,-0.0388,-0.0396,-0.0364,-0.035,-0.0323,-0.0289,-0.024,-0.0175,-0.0115,-0.0098,-0.0069,-0.0016,-0.0005,0.0021,0.0052,0.0048,0.0093,0.0104,-0.0008,-0.0007,-0.0007,-0.0006,0,0,-0.0411,-0.0425,-0.0429,-0.0438,-0.0422,-0.042,-0.041,-0.0383,-0.0365,-0.032,-0.0285,-0.0217,-0.017,-0.0134,-0.0083,-0.0026,0.0031,0.0002,0.0007,0.0042,0.0162,0.0139,0.0149,0.0064,0.0066,0.0068,0.0174,0,-0.0455,-0.0498,-0.0487,-0.0515,-0.053,-0.0488,-0.0481,-0.0446,-0.0401,-0.0357,-0.0274,-0.0226,-0.0186,-0.0156,-0.0091,0.0002,0.0059,-0.0001,0.0162,0.0167,0.0146,0.0161,0.0074,0.0182,0.0185,0.0187,0.0188,0,-0.0508,-0.0528,-0.0572,-0.0571,-0.0573,-0.0581,-0.0547,-0.0534,-0.0456,-0.0417,-0.0342,-0.0273,-0.018,-0.0149,0.0015,-0.0029,0.0059,0.0129,0.0136,0.0145,0.0165,0.0193,0.0209,0.0207,0.0205,0.0204,0.0203,0,-0.0556,-0.0583,-0.0621,-0.0623,-0.0619,-0.0624,-0.0615,-0.0557,-0.0538,-0.0451,-0.0418,-0.0295,-0.0234,-0.0104,0.004,0.0032,0.0216,0.0232,0.0295,0.0294,0.0308,0.0304,0.0353,0.0353,0.0352,0.0352,0.0352,0,-0.0604,-0.0634,-0.0651,-0.0672,-0.0705,-0.0679,-0.0688,-0.0653,-0.0597,-0.0569,-0.0455,-0.0401,-0.022,-0.0093,0.0037,0.0194,0.0223,0.0295,0.0327,0.0278,0.0269,0.0315,0.0309,0.0356,0.0355,0.0354,0.0354,0,-0.0651,-0.0667,-0.071,-0.0725,-0.0735,-0.0758,-0.0755,-0.0747,-0.0691,-0.0648,-0.0623,-0.0473,-0.0308,-0.0127,0.009,0.0181,0.034,0.039,0.0309,0.0334,0.037,0.036,0.047,0.047,0.0471,0.0471,0.0471,0,-0.0677,-0.071,-0.0758,-0.0788,-0.0803,-0.0831,-0.0844,-0.0805,-0.0785,-0.069,-0.0665,-0.0508,-0.0391,-0.01,0.008,0.033,0.0362,0.0434,0.0415,0.0366,0.0386,0.0376,0.0366,0.0471,0.0471,0.0471,0.0471,0,-0.0717,-0.0743,-0.0776,-0.0843,-0.0879,-0.0906,-0.0917,-0.0913,-0.0851,-0.0808,-0.0679,-0.0517,-0.0333,-0.0107,0.0086,0.0263,0.0382,0.0436,0.0437,0.042,0.0369,0.0386,0.0376,0.0472,0.0472,0.0472,0.0472,0,-0.0739,-0.0777,-0.0826,-0.0875,-0.0931,-0.0955,-0.096,-0.0918,-0.0889,-0.0775,-0.074,-0.0526,-0.0401,-0.0142,0.0037,0.0208,0.0247,0.0291,0.03,0.0301,0.0217,0.0124,0.0185,0,0,0,0,0,-0.0744,-0.0789,-0.0846,-0.0899,-0.0955,-0.0977,-0.0988,-0.0975,-0.0927,-0.0842,-0.0783,-0.0604,-0.0324,-0.0197,-0.0028,0.0025,0.0261,0.0225,0.0311,0.0476,0.0475,0.0402,0,0,0,0,0,0,-0.0745,-0.0815,-0.0843,-0.0901,-0.0941,-0.0987,-0.0997,-0.0967,-0.0901,-0.0836,-0.0679,-0.0584,-0.0306,-0.0419,-0.0031,0.0021,0.0093,0.0364,0.0367,0.0476,0.0476,0.0475,0.04,0,0,0,0,0]}]]